www.pogodaiklimat.ru
ПОГОДА в Акроне
Время
и дата
00:51 14.07
01:51 14.07
02:51 14.07
03:51 14.07
04:51 14.07
05:51 14.07
06:51 14.07
07:51 14.07
08:51 14.07
09:51 14.07
10:51 14.07
11:51 14.07
12:51 14.07
13:51 14.07
14:51 14.07
15:51 14.07
16:51 14.07
17:51 14.07
18:16 14.07
18:38 14.07
18:51 14.07
19:03 14.07
19:51 14.07
20:51 14.07
21:51 14.07
22:51 14.07
23:51 14.07
00:51 15.07
01:51 15.07
02:11 15.07
02:51 15.07
03:51 15.07
04:51 15.07
05:51 15.07
06:51 15.07
07:51 15.07
08:51 15.07
09:51 15.07
10:51 15.07
11:51 15.07
12:51 15.07
13:51 15.07
14:51 15.07
15:51 15.07
16:51 15.07
17:51 15.07
18:51 15.07
19:51 15.07
Ветер
(напр.,м/с)
Видим. Явления Облачность Т
(С)
Тd
(С)
f
(%)
Тe
(С)
Тes
(С)
Комфортность P
(гПа)
Po
(гПа)
Тmin
(С)
Tmax
(С)
R
(мм)
R24
(мм)
S
(см)
Ю 2 16 км ясно +21.7 +18.9 84 +27 +27 душно 1019.6 976.1 +21.7 +27.2
ЮВ 2 16 км ясно +21.7 +18.9 84 +27 +27 душно 1018.5 975.1
Ю 2 13 км ясно +21.7 +18.9 84 +27 +27 душно 1018.0 974.8
ЮЗ 2 13 км ясно +20.6 +18.3 87 +25 +25 комфорт 1018.5 975.1
ЮЗ 2 13 км 2/0 5400 m
[Ac Ci]
+20.0 +18.3 90 +24 +24 комфорт 1018.8 975.4
штиль 0 11 км 5/0 5400 m
[Ac Ci]
+21.1 +18.9 87 +25 +25 комфорт 1019.0 975.4
нст 2 11 км 5/0 7500 m
[Ci]
+22.8 +19.4 81 +29 +30 очень
душно
1019.2 975.4 +20.0 +22.8
нст 2 16 км 5/0 7500 m
[Ci]
+25.6 +20.0 71 +31 +34 очень
душно
1018.6 975.1
ЮЗ 3 16 км 5/0 7500 m
[Ci]
+27.2 +20.0 65 +33 +38 очень
душно
1018.5 975.1
16 км 8/2 900 m
[Ac Ci]
+28.3 +20.0 61 +35 +42 очень
душно
1018.2 974.8
ЮЗ 5 16 км 8/2 1020 m
[Ac Ci]
+30.0 +20.6 57 +37 +41 очень
душно
1018.0 974.8
ЮЗ 5
{8}
16 км 8/5 1020 m
[Ac Ci]
+30.0 +20.0 55 +36 +40 очень
душно
1017.3 973.8
ЮЗ 6 16 км 10/5 1140 m
[Ac]
+28.9 +20.0 59 +35 +36 очень
душно
1016.8 973.5 +22.8 +30.6
ЮЗ 4 16 км 10/5 1140 m
[Ac]
+28.3 +20.6 63 +35 +37 очень
душно
1015.9 972.5
ЮЗ 4 16 км 8/0 3000 m
[Ac]
+30.6 +20.6 55 +38 +43 очень
душно
1015.5 972.2
ЮЗ 6 16 км 8/0 2700 m
[Ac]
+30.0 +19.4 53 +36 +38 очень
душно
1014.4 971.2 0.3
ЮЗ 9
{13}
16 км 5/2 1470 m
[Ac]
+30.6 +18.9 50 +36 +37 очень
душно
1013.9 970.6
ЮЗ 5 16 км гроза 10/5 1350 m
[Ac Cb]
+28.9 +19.4 57 +35 +35 очень
душно
1014.2 970.9
З 5
{16}
4 км гроза со слабым дождем 8/8 810 m
[Cb]
+23.9 +19.4 76 +29 +29 душно 970.9
З 2 11 км гроза 5/5 1200 m
[Ac Cb]
+25.0 +21.1 79 +32 +33 очень
душно
970.9
З 3 16 км гроза 5/5 1200 m
[Ac Cb]
+24.4 +21.1 82 +31 +32 очень
душно
1014.4 970.9 +23.9 +31.1 3.3
З 4 16 км 5/2 1800 m
[Ci]
+24.4 +21.1 82 +31 +31 очень
душно
970.9
З 4 16 км 5/0 6300 m
[Ci]
+22.8 +20.6 87 +30 +30 очень
душно
1014.4 970.9
З 3 16 км 2/0 6600 m
[Ci]
+22.2 +20.0 87 +28 +28 душно 1014.5 971.2
ЮЗ 4 16 км 2/0 6900 m
[Ci]
+22.2 +18.9 82 +28 +28 душно 1014.4 971.2
ЮЗ 4 16 км 2/0 3000 m
[Ac Ci]
+21.7 +18.3 81 +26 +26 душно 1014.1 970.9
ЮЗ 5 16 км 2/2 900 m
[Ac Ci]
+21.7 +18.3 81 +26 +26 душно 1014.1 970.9
ЮЗ 3 16 км 5/5 900 m
[Ci]
+21.1 +18.3 84 +25 +25 комфорт 1014.5 971.2 +21.1 +24.4
ЮЗ 3 16 км 8/8 810 m
[Ac Ci]
+21.1 +18.3 84 +25 +25 комфорт 1014.2 970.9
ЮЗ 3 16 км 5/5 960 m
[Ac Ci]
+21.1 +18.3 84 +25 +25 комфорт 970.6
ЮЗ 3 16 км 2/2 840 m
[Ac Ci]
+21.1 +18.3 84 +25 +25 комфорт 1013.3 970.2
ЮЗ 3 16 км 8/5 1080 m
[Ac Ci]
+21.1 +18.9 87 +25 +25 комфорт 1013.6 970.6
Ю 4 16 км 8/8 1140 m
[Ac]
+21.7 +18.9 84 +27 +27 душно 1013.5 970.2
Ю 5 16 км 8/2 1200 m
[Ac Ci]
+21.7 +18.9 84 +27 +27 душно 1013.5 970.2
Ю 5 16 км 8/2 1200 m
[Ac Ci]
+22.2 +18.9 82 +28 +28 душно 1013.5 970.2 +20.6 +22.8 3.3
ЮЗ 5 16 км 8/2 660 m
[Ac Ci]
+24.4 +20.0 76 +30 +31 очень
душно
1013.7 970.2
16 км 8/2 690 m
[Ac Ci]
+26.1 +21.1 74 +33 +37 очень
душно
1012.8 969.6
ЮЗ 6 16 км 10/2 690 m
[Ac Ci]
+26.1 +21.1 74 +33 +35 очень
душно
1012.4 969.3
ЮЗ 7 16 км 10/2 720 m
[Ac Ci]
+27.8 +21.1 67 +35 +37 очень
душно
1012.4 969.3
ЮЗ 9
{12}
16 км 10/2 780 m
[Ac Ci]
+27.8 +20.0 63 +34 +35 очень
душно
1012.2 968.9
ЮЗ 9
{12}
16 км 8/2 1050 m
[Ci]
+30.0 +20.6 57 +37 +38 очень
душно
1011.9 968.6 +22.2 +30.0
ЮЗ 7
{12}
16 км 5/5 1350 m
[Ci]
+30.0 +18.9 51 +35 +38 очень
душно
1011.3 968.3
З 8
{12}
16 км 2/2 1440 m
[Ci]
+31.1 +18.3 46 +36 +38 очень
душно
1011.1 968.0
З 7
{10}
16 км 2/2 1500 m
[Ci]
+31.1 +19.4 50 +37 +40 очень
душно
1010.5 967.3
З 6
{10}
16 км 5/5 1380 м +31.1 +20.0 52 +38 +39 очень
душно
1010.3 967.3
З 3 16 км 8/8 1380 м +29.4 +20.6 59 +36 +37 очень
душно
1010.3 967.3
З 2 16 км 8/8 1650 м +28.9 +21.1 63 +36 +37 очень
душно
1010.3 967.3 +28.9 +31.7
Ю 3 16 км 5/5 1800 m
[Ci]
+27.2 +21.1 69 +34 +34 очень
душно
1009.7 966.7
Местоположение метеостанции Akron-Canton Regional Airport: широта 40.9181 долгота -81.4425 высота над уровнем моря 374 м.
В архиве по умолчанию представлена погода в Акроне за последние 1-2 суток. Обновление информации о фактической погоде в базе происходит ежечасно! Архивные данные за месяц целиком и за предыдущие месяцы Вы можете получить, выбрав интересующий диапазон дат из раскрывающегося списка и нажав кнопку "Ввод!".
Внимание! Архив погоды МЕТАР в базе сайта по станциям, не включенным в климатический монитор, хранится не более 60 дней. Нет смысла пытаться выбрать более раннюю дату.
*Определитесь, кто Вы:
Внимание! Время в таблицах - местное (без учета летнего времени). Для получения всемирного времени необходимо вычесть поправку, которая равна -5 ч.
Смотрите также архив погоды в соседних городах и на ближайших метеорологических станциях:
Партнеры нашего сайта:      
Пояснения к столбцам:
  • Ветер - указаны скорость ветра в м/с - средняя за 10 мин, порывы в срок и между сроками (в фигурных скобках) и направление, откуда дует ветер: С - северный,
  • СВ - северо-восточный, В - восточный, ЮВ - юго-восточный, Ю - южный, ЮЗ - юго-западный, З - западный, СЗ - северо-западный.
  • Видимость - горизонтальная дальность видимости в метрах или километрах. При видимости от 1 до 10 км при отсутствии осадков обычно наблюдается дымка, при ухудшении видимости до 1 км и менее - туман. В сухую погоду видимость может ухудшаться дымом, пылью или мглою.
  • Явления - указаны атмосферные явления, наблюдавшиеся в срок или в последний час перед сроком; фигурными скобками обозначены явления, наблюдавшиеся между сроками (за 1-3 часа до срока); квадратными скобками обозначены град или гололедные отложения с указанием их диаметра в мм.
  • Облачность - указаны через наклонную черту общая и нижняя облачность в баллах и высота нижней границы облаков в метрах; квадратными скобками обозначены формы облаков: Ci - перистые, Cs - перисто-слоистые, Cc - перисто-кучевые, Ac - высококучевые, As - высокослоистые, Sc - слоисто-кучевые, Ns - слоисто-дождевые, Cu - кучевые, Cb - кучево-дождевые. Подробнее классификацию облаков см. в Атласе облаков (PDF).
  • T - Температура воздуха - температура, измеренная на высоте 2 м над землей.
  • Td - Температура точки росы - температура, при понижении до которой содержащийся в воздухе водяной пар достигнет насыщения.
  • f - Относительная влажность воздуха - влажноcть воздуха, измеренная на высоте 2 м над землей.
  • Te - Эффективная температура - температура, которую ощущает одетый по сезону человек в тени. Характеристика душности погоды. При расчете учитывается влияние влажности воздуха и скорости ветра на теплоощущения человека.
  • Tes - Эффективная температура на солнце - температура, которую ощущает человек, с поправкой на солнечный нагрев. Характеристика знойности погоды. Зависит от высоты солнца над горизонтом, облачности и скорости ветра. Ночью, в пасмурную погоду, а также при ветре 12 м/с и более поправка равна нулю.
  • P - Атмосферное давление - приведенное к уровню моря атмосферное давление.
  • Po - Атмосферное давление - измеренное на уровне метеостанции атмосферное давление.
  • Tmin - Минимальная температура - минимум температуры воздуха на высоте 2 м над землей.
  • Tmax - Максимальная температура - максимум температуры воздуха на высоте 2 м над землей.
  • R - Количество осадков - Количество выпавших осадков за период времени, мм. При наведении курсора мыши на число - период времени, за который выпало указанное количество осадков.
  • R24 - Количество осадков - Количество выпавших осадков за 24 часа, мм.
  • S - Снежный покров - Высота снежного покрова, см. При наведении курсора мыши на число - состояние снежного покрова и степень покрытия местности в баллах.